TimeCDT,TemperatureF,Dew PointF,Humidity,Sea Level PressureIn,VisibilityMPH,Wind Direction,Wind SpeedMPH,Gust SpeedMPH,PrecipitationIn,Events,Conditions,WindDirDegrees,DateUTC
12:14 AM,66.2,59.0,78,30.15,10.0,East,12.7,17.3,N/A,,Clear,100,2013-09-08 05:14:00
12:34 AM,66.2,59.0,78,30.15,10.0,East,12.7,17.3,N/A,,Clear,100,2013-09-08 05:34:00
12:54 AM,64.4,57.2,77,30.15,10.0,East,13.8,-,N/A,,Clear,100,2013-09-08 05:54:00
1:14 AM,64.4,57.2,77,30.15,10.0,East,11.5,-,N/A,,Clear,100,2013-09-08 06:14:00
1:34 AM,64.4,57.2,77,30.15,10.0,East,13.8,-,N/A,,Clear,100,2013-09-08 06:34:00
1:54 AM,64.4,57.2,77,30.14,10.0,ESE,10.4,-,N/A,,Clear,110,2013-09-08 06:54:00
2:14 AM,64.4,57.2,77,30.14,10.0,East,12.7,-,N/A,,Clear,90,2013-09-08 07:14:00
2:34 AM,64.4,57.2,77,30.13,10.0,East,13.8,-,N/A,,Clear,100,2013-09-08 07:34:00
2:54 AM,62.6,57.2,82,30.14,10.0,ESE,9.2,-,N/A,,Clear,110,2013-09-08 07:54:00
3:14 AM,60.8,57.2,88,30.14,10.0,ESE,9.2,-,N/A,,Clear,110,2013-09-08 08:14:00
3:34 AM,60.8,55.4,82,30.14,10.0,ESE,6.9,-,N/A,,Clear,120,2013-09-08 08:34:00
3:53 AM,59.0,55.4,88,30.14,10.0,ESE,8.1,-,N/A,,Clear,110,2013-09-08 08:53:00
4:14 AM,59.0,55.4,88,30.12,10.0,ESE,9.2,-,N/A,,Clear,110,2013-09-08 09:14:00
4:34 AM,59.0,55.4,88,30.12,10.0,ESE,9.2,-,N/A,,Clear,110,2013-09-08 09:34:00
4:54 AM,59.0,55.4,88,30.12,10.0,ESE,9.2,-,N/A,,Clear,120,2013-09-08 09:54:00
5:14 AM,57.2,53.6,88,30.13,10.0,ESE,8.1,-,N/A,,Clear,120,2013-09-08 10:14:00
5:34 AM,57.2,53.6,88,30.12,10.0,ESE,10.4,-,N/A,,Clear,120,2013-09-08 10:34:00
5:54 AM,57.2,53.6,88,30.12,10.0,ESE,9.2,-,N/A,,Clear,110,2013-09-08 10:54:00
6:13 AM,57.2,53.6,88,30.12,10.0,ESE,8.1,-,N/A,,Clear,110,2013-09-08 11:13:00
6:34 AM,57.2,53.6,88,30.12,10.0,ESE,6.9,-,N/A,,Clear,120,2013-09-08 11:34:00
6:54 AM,57.2,53.6,88,30.11,10.0,ESE,5.8,-,N/A,,Clear,110,2013-09-08 11:54:00
7:13 AM,57.2,53.6,88,30.12,10.0,ESE,4.6,-,N/A,,Clear,110,2013-09-08 12:13:00
7:34 AM,57.2,53.6,88,30.12,10.0,ESE,5.8,-,N/A,,Clear,110,2013-09-08 12:34:00
7:54 AM,57.2,53.6,88,30.11,10.0,ESE,8.1,-,N/A,,Clear,110,2013-09-08 12:54:00
8:13 AM,57.2,55.4,94,30.11,10.0,ESE,6.9,-,N/A,,Clear,110,2013-09-08 13:13:00
8:34 AM,57.2,53.6,88,30.10,10.0,ESE,6.9,-,N/A,,Clear,110,2013-09-08 13:34:00
8:54 AM,59.0,55.4,88,30.09,10.0,ESE,5.8,-,N/A,,Scattered Clouds,110,2013-09-08 13:54:00
9:13 AM,59.0,55.4,88,30.09,10.0,ESE,6.9,-,N/A,,Scattered Clouds,110,2013-09-08 14:13:00
9:34 AM,60.8,55.4,82,30.08,10.0,ESE,8.1,-,N/A,,Clear,110,2013-09-08 14:34:00
9:54 AM,60.8,55.4,82,30.08,10.0,ESE,4.6,-,N/A,,Scattered Clouds,120,2013-09-08 14:54:00
10:13 AM,62.6,55.4,77,30.08,10.0,SE,6.9,-,N/A,,Scattered Clouds,130,2013-09-08 15:13:00
10:34 AM,64.4,55.4,73,30.08,10.0,SE,9.2,-,N/A,,Clear,130,2013-09-08 15:34:00
10:54 AM,64.4,55.4,73,30.07,10.0,SSE,10.4,-,N/A,,Scattered Clouds,150,2013-09-08 15:54:00
11:13 AM,66.2,55.4,68,30.07,10.0,SSE,11.5,-,N/A,,Scattered Clouds,160,2013-09-08 16:13:00
11:34 AM,68.0,55.4,64,30.06,10.0,South,12.7,-,N/A,,Scattered Clouds,170,2013-09-08 16:34:00
11:54 AM,68.0,55.4,64,30.05,10.0,SE,9.2,-,N/A,,Clear,140,2013-09-08 16:54:00
12:13 PM,68.0,55.4,64,30.05,10.0,SSE,11.5,-,N/A,,Clear,160,2013-09-08 17:13:00
12:34 PM,66.2,55.4,68,30.04,10.0,SSE,8.1,-,N/A,,Scattered Clouds,160,2013-09-08 17:34:00
12:54 PM,66.2,55.4,68,30.04,10.0,SSE,6.9,-,N/A,,Overcast,150,2013-09-08 17:54:00
1:13 PM,66.2,55.4,68,30.03,10.0,SSE,6.9,-,N/A,,Mostly Cloudy,150,2013-09-08 18:13:00
1:34 PM,69.8,57.2,64,30.01,10.0,ESE,8.1,-,N/A,,Clear,120,2013-09-08 18:34:00
1:54 PM,68.0,57.2,68,30.00,10.0,SE,9.2,-,N/A,,Clear,130,2013-09-08 18:54:00
2:14 PM,69.8,57.2,64,29.99,10.0,East,9.2,-,N/A,,Mostly Cloudy,100,2013-09-08 19:14:00
2:34 PM,69.8,57.2,64,29.99,10.0,ESE,6.9,-,N/A,,Mostly Cloudy,110,2013-09-08 19:34:00
2:53 PM,68.0,57.2,68,29.98,10.0,ESE,6.9,-,N/A,,Mostly Cloudy,120,2013-09-08 19:53:00
3:14 PM,69.8,55.4,60,29.98,10.0,ESE,9.2,-,N/A,,Scattered Clouds,110,2013-09-08 20:14:00
3:34 PM,69.8,57.2,64,29.97,10.0,ESE,10.4,-,N/A,,Scattered Clouds,120,2013-09-08 20:34:00
3:53 PM,69.8,57.2,64,29.96,10.0,SE,8.1,-,N/A,,Scattered Clouds,130,2013-09-08 20:53:00
4:14 PM,69.8,53.6,56,29.96,10.0,SE,8.1,-,N/A,,Clear,130,2013-09-08 21:14:00
4:33 PM,68.0,55.4,64,29.96,10.0,SSE,10.4,-,N/A,,Clear,160,2013-09-08 21:33:00
4:54 PM,66.2,55.4,68,29.96,10.0,SSE,9.2,-,N/A,,Scattered Clouds,160,2013-09-08 21:54:00
5:14 PM,66.2,55.4,68,29.96,10.0,South,11.5,-,N/A,,Scattered Clouds,170,2013-09-08 22:14:00
5:33 PM,66.2,55.4,68,29.96,10.0,South,6.9,-,N/A,,Mostly Cloudy,170,2013-09-08 22:33:00
5:54 PM,64.4,55.4,73,29.95,10.0,South,5.8,-,N/A,,Overcast,170,2013-09-08 22:54:00
6:14 PM,64.4,55.4,73,29.95,10.0,SSE,3.5,-,N/A,,Overcast,160,2013-09-08 23:14:00
6:34 PM,64.4,55.4,73,29.94,10.0,SSE,5.8,-,N/A,,Overcast,150,2013-09-08 23:34:00
6:54 PM,64.4,57.2,77,29.93,10.0,SSE,9.2,-,N/A,,Overcast,160,2013-09-08 23:54:00
7:14 PM,62.6,57.2,82,29.93,10.0,SSE,5.8,-,N/A,,Overcast,160,2013-09-09 00:14:00
7:34 PM,62.6,57.2,82,29.92,10.0,SSE,4.6,-,N/A,,Overcast,150,2013-09-09 00:34:00
7:54 PM,62.6,57.2,82,29.91,10.0,South,5.8,-,N/A,,Overcast,170,2013-09-09 00:54:00
8:14 PM,62.6,57.2,82,29.90,10.0,SSE,4.6,-,N/A,,Overcast,150,2013-09-09 01:14:00
8:34 PM,62.6,57.2,82,29.90,10.0,SSE,10.4,-,N/A,,Overcast,160,2013-09-09 01:34:00
8:54 PM,60.8,57.2,88,29.91,10.0,SSE,8.1,-,N/A,,Overcast,150,2013-09-09 01:54:00
9:14 PM,60.8,57.2,88,29.90,10.0,SSE,8.1,-,N/A,,Overcast,150,2013-09-09 02:14:00
9:34 PM,60.8,55.4,82,29.90,10.0,SSE,6.9,-,N/A,,Overcast,160,2013-09-09 02:34:00
9:54 PM,60.8,55.4,82,29.90,10.0,SSE,6.9,-,N/A,,Overcast,160,2013-09-09 02:54:00
10:14 PM,60.8,55.4,82,29.90,10.0,South,4.6,-,N/A,,Overcast,170,2013-09-09 03:14:00
10:34 PM,59.0,55.4,88,29.89,7.0,SSE,6.9,-,N/A,,Overcast,160,2013-09-09 03:34:00
10:54 PM,59.0,55.4,88,29.88,7.0,SSE,4.6,-,N/A,,Overcast,150,2013-09-09 03:54:00
11:14 PM,59.0,55.4,88,29.86,10.0,SE,6.9,-,N/A,,Overcast,130,2013-09-09 04:14:00
11:34 PM,59.0,55.4,88,29.87,10.0,South,4.6,-,N/A,,Overcast,170,2013-09-09 04:34:00
11:54 PM,59.0,55.4,88,29.86,10.0,South,5.8,-,N/A,,Overcast,170,2013-09-09 04:54:00